sat.trackr.live / text

‹ back to catalog

BRO-21

NORAD 69007 · 2026-100AD

PAYLOAD ACTIVE UNKNOWN

§ Identity

Operator
Country
FR
Launch date
2026-05-03
Launch site
AFWTR
Launch vehicle
Mass (kg)
RCS (m²)

External: N2YO · Heavens-Above · Gunter

§ Orbital elements

Epoch: 2026-05-24T23:23:02.984640Z

Period
94.66 min
Inclination
97.4068°
Eccentricity
0.0009303
Mean motion
15.21285702 rev/d
Perigee alt
495.6 km
Apogee alt
508.4 km
Semi-major
6,880.1 km
B*
1.3308e-4
RAAN
43.2475°
Arg perigee
127.8386°
Mean anomaly
232.3693°
Rev number
327

§ Raw data

BRO-211 69007U 26100AD  26144.97434010  .00002909  00000+0  13308-3 0  99932 69007  97.4068  43.2475 0009303 127.8386 232.3693 15.21285702  3276

JSON: /api/v1/satellites/69007 · /tle

For live sub-satellite position, see the globe view (requires WebGL).

§ Visibility from observer

Set your observer location to see the next 7 days of passes ≥ 10°. The values pass through the URL so the page stays shareable.

No JS? Fill the form by hand. The geolocation button needs JavaScript.